Weather History for KOTM - November, 2012

Change the Weather History Date:

Friday, November 23, 2012

  Actual Average Record
Temperature  
Mean Temperature 30 °F 35 °F  
Max Temperature 39 °F 45 °F 68 °F (1966)
Min Temperature 20 °F 26 °F 1 °F (1937)
Degree Days  
Heating Degree Days 35 30  
Month to date heating degree days 475 550  
Since 1 July heating degree days 1058 1074  
Cooling Degree Days 0 0  
Month to date cooling degree days 2 0  
Year to date cooling degree days 1237 938  
Moisture  
Dew Point 16 °F    
Average Humidity 59    
Maximum Humidity 68    
Minimum Humidity 49    
Precipitation  
Precipitation 0.00 in 0.08 in 1.57 in (1999)
Month to date precipitation 1.58 1.89  
Year to date precipitation 25.33 35.21  
Sea Level Pressure  
Sea Level Pressure 30.31 in    
Wind  
Wind Speed 20 mph (NW)    
Max Wind Speed 32 mph    
Max Gust Speed 43 mph    
Visibility 10 miles    
Events Snow    
T = Trace of Precipitation, MM = Missing Value Source: NWS Daily Summary

Daily Weather History Graph

Daily Weather History Graph

Search for Another Location

Airport or City:

Trip Planner

Search our weather history database for the weather conditions in past years. The results will help you decide how hot, cold, wet, or windy it might be!

Date:

Astronomy

Nov. 23, 2012 Rise Set
Actual Time 7:07 AM CST 4:44 PM CST
Civil Twilight 6:37 AM CST 5:15 PM CST
Nautical Twilight 6:03 AM CST 5:48 PM CST
Astronomical Twilight 5:30 AM CST 6:21 PM CST
Moon 2:01 PM CST (11/23) 2:24 AM CST (11/23)
Length of Visible Light 10h 37m
Length of Day
9h 37m
Waxing Gibbous, 80% of the Moon is Illuminated
Nov 23
Waxing Gibbous
Nov 28
Full
Dec 6
Last Quarter
Dec 13
New
Dec 19
First Quarter

Hourly Weather History & Observations

Time (CST) Temp. Windchill Dew Point Humidity Pressure Visibility Wind Dir Wind Speed Gust Speed Precip Events Conditions
12:53 AM 37.0 °F 28.5 °F 30.0 °F 76% 30.13 in 9.0 mi WNW 13.8 mph - 0.00 in Snow Light Snow
1:53 AM 36.0 °F 26.7 °F 25.0 °F 64% 30.14 in 9.0 mi WNW 15.0 mph 23.0 mph 0.00 in Snow Light Snow
2:53 AM 37.0 °F 26.7 °F 21.0 °F 52% 30.15 in 9.0 mi NW 19.6 mph 29.9 mph 0.00 in Snow Light Snow
3:53 AM 36.0 °F 24.7 °F 21.0 °F 55% 30.16 in 10.0 mi NW 21.9 mph 29.9 mph 0.00 in   Overcast
4:53 AM 32.0 °F 17.2 °F 18.0 °F 56% 30.19 in 10.0 mi NW 32.2 mph 42.6 mph 0.00 in   Clear
5:53 AM 30.9 °F 17.2 °F 18.0 °F 59% 30.22 in 10.0 mi WNW 25.3 mph 34.5 mph N/A   Mostly Cloudy
6:53 AM 28.0 °F 14.6 °F 17.1 °F 63% 30.26 in 10.0 mi WNW 20.7 mph 26.5 mph N/A   Clear
7:53 AM 27.0 °F 12.2 °F 15.1 °F 61% 30.29 in 10.0 mi WNW 24.2 mph 33.4 mph N/A   Clear
8:53 AM 28.0 °F 12.8 °F 15.1 °F 58% 30.30 in 10.0 mi WNW 27.6 mph 38.0 mph N/A   Clear
9:53 AM 28.9 °F 14.3 °F 15.1 °F 56% 30.34 in 10.0 mi WNW 26.5 mph 36.8 mph N/A   Scattered Clouds
10:53 AM 30.0 °F 16.3 °F 16.0 °F 56% 30.36 in 10.0 mi WNW 24.2 mph 34.5 mph N/A   Mostly Cloudy
11:53 AM 32.0 °F 19.5 °F 16.0 °F 52% 30.35 in 10.0 mi WNW 21.9 mph 31.1 mph N/A   Mostly Cloudy
12:53 PM 32.0 °F 18.6 °F 16.0 °F 52% 30.35 in 10.0 mi NW 25.3 mph 32.2 mph N/A   Scattered Clouds
1:53 PM 32.0 °F 20.1 °F 15.1 °F 50% 30.35 in 10.0 mi WNW 19.6 mph 29.9 mph N/A   Clear
2:53 PM 32.0 °F 19.2 °F 15.1 °F 50% 30.36 in 10.0 mi NW 23.0 mph 28.8 mph N/A   Clear
3:53 PM 32.0 °F 20.5 °F 15.1 °F 50% 30.37 in 10.0 mi NW 18.4 mph 25.3 mph N/A   Clear
4:53 PM 28.9 °F 18.2 °F 14.0 °F 54% 30.38 in 10.0 mi NW 13.8 mph - N/A   Clear
5:53 PM 28.0 °F 17.5 °F 14.0 °F 56% 30.39 in 10.0 mi NW 12.7 mph - N/A   Clear
6:53 PM 26.1 °F 15.6 °F 14.0 °F 60% 30.40 in 10.0 mi NW 11.5 mph - N/A   Clear
7:53 PM 25.0 °F 12.6 °F 12.9 °F 60% 30.40 in 10.0 mi NW 15.0 mph - N/A   Clear
8:53 PM 24.1 °F 11.5 °F 12.9 °F 62% 30.40 in 10.0 mi NW 15.0 mph - N/A   Clear
9:53 PM 23.0 °F 10.6 °F 12.9 °F 65% 30.40 in 10.0 mi NW 13.8 mph - N/A   Clear
10:53 PM 21.9 °F 9.2 °F 12.9 °F 68% 30.40 in 10.0 mi NW 13.8 mph - N/A   Clear
11:53 PM 19.9 °F 7.3 °F 12.0 °F 71% 30.38 in 10.0 mi NW 12.7 mph - N/A   Clear